Location: Clarks Summit,Pa.
(41.5000°N, 75.6000°W)
Time: 06:33:56
(UTC-05:00)

Envisat - Pass Details

Date: 01 December 2021
Orbit: 764 x 766 km, 98.2° (Epoch: 28 January)

Event Time Altitude Azimuth Distance (km) Brightness Sun altitude
Rises 16:59:25 0° 193° (SSW) 3,216 6.8 -5.2°
Reaches altitude 10° 17:01:58 10° 204° (SSW) 2,295 6.3 -5.6°
Maximum altitude 17:06:23 30° 264° (W) 1,356 5.2 -6.4°
Drops below altitude 10° 17:10:49 10° 325° (NW) 2,311 5.6 -7.1°
Sets 17:13:25 0° 337° (NNW) 3,242 6.3 -7.6°
